Showing default

HG-03, 61503

Orbit data source: Space-Track

HG-03, 61503 is a payload satellite owned by CNSA (CN) in GEO that was launched on Thu, 10 Oct 2024 UTC via a CHANG ZHENG 3B launch vehicle from the Xichang Space Center, China (XSC). Payloads include a variety of satellites, spacecraft, and rockets equipped with specific instruments for various scientific and technological missions. These include communications satellites like Starlink; space stations such as the ISS; scientific satellites like the Hubble; Earth observation satellites from companies like Planet Labs, Umbra, and HawkEye 360; GPS; miniature CubeSats for education and research; and military/defense satellites.

Loading next visibility...
HG-03 details
Identifier
61503, 2024-181A
Orbit
GEO
Last TLE update17 hours ago
Origin
Flag of CNCNSA (CN / PRC)
ManufacturerCAST
MissionOperational spacecraft
Bus & MotorDFH-4?, FY-25?
Mass~4,000 kg wet, ~2,000 kg dry
Launch date (UTC)
2024-10-10 (2 months ago)
Launch vehicle
CHANG ZHENG 3B
Launch site
Xichang Space Center, China (XSC)
Object type
Payload
Rocket body
Debris
Shape & HBRUnknown
Radar Cross SectionLarge (>1 m²)

Expand to show TLE details & history

TLE from 17 hours ago
0 HG-03
1 61503U 24181A   24355.79754898 -.00000230  00000-0  00000-0 0  9993
2 61503   0.0431 107.8190 0002993 167.7087  24.3039  1.00271819  1371
Epoch: 2024-12-20T19:08Z
Definitive object data (Epoch: 2024-12-20T19:08:28.231Z)
Latitude-0.02587°
Longitude-77.12622°
Altitude35,774.535 km
Speed3.076 km/s
True Right ascension19h 59m 23s
True Declination0° 01' 33"
Sunlit
Object was in daylight at TLE epoch
Visualization TLE readout
Latitude0.03657°
Longitude174.14053°
Altitude35,784.885 km
Speed3.075 km/s
Apparent Right ascension12h 58m 21s
Apparent Declination-6° 05' 23"
Sunlit
Object is in daylight
Visualization observer readout
Local Sidereal Time10:52:41
Azimuth140.373° SSE
Elevation35.648°
Doppler factor1
Orbital elements
Apogee altitude35,800.276 km
Perigee altitude35,775.036 km
Semi-major axis42,165.793 km
Eccentricity0.0002993
Inclination0.0431°
RAAN107.819°
Arg. of periapsis167.7087°
True anomaly24.31802°
Mean anomaly24.3039°
Eccentric anomaly24.31096°
Mean motion0.25067 °/min
BSTARUnknown
Orbital period1436.15 mins
Loading historical data...
61503 neighbors
Authenticating...
Loading maneuver chart data...
Loading historical data...
Loading historical data...
Loading historical data...
Loading historical data...
Loading historical data...
Loading historical data...
Loading historical data...
Other satellites on launch #181 in the year 2024 (2024-10-10 UTC)

HG-03 Visibility forecast

Observer location: undefined°, undefined

Span
Click to sort rows by Start time (UTC) header in descending order
Start Az.
Max El. time (UTC)
Max El. Az.
Max El.
End time (UTC)
End Az.
1440 mins2024-12-21 11:50:59.470Z140.385° SSE2024-12-22 11:08:59.470Z140.386° SSE30.23°2024-12-22 11:50:59.470Z140.387° SSE
|